sat.trackr.live / text

‹ back to catalog

STARLINK-34471

NORAD 64739 · 2025-144R

PAYLOAD ACTIVE UNKNOWN

§ Identity

Operator
Country
US
Launch date
2025-07-02
Launch site
AFETR
Launch vehicle
Mass (kg)
RCS (m²)

Purposes: comms

External: N2YO · Heavens-Above · Gunter

§ Orbital elements

Epoch: 2026-09-20T13:10:48.977472Z

Period
93.85 min
Inclination
53.1593°
Eccentricity
0.0000848
Mean motion
15.34406079 rev/d
Perigee alt
462.1 km
Apogee alt
463.3 km
Semi-major
6,840.8 km
B*
7.0480e-4
RAAN
355.3776°
Arg perigee
98.9426°
Mean anomaly
261.1673°
Rev number
6,949

§ Raw data

STARLINK-344711 64739U 25144R   26263.54917798  .00023516  00000+0  70480-3 0  99922 64739  53.1593 355.3776 0000848  98.9426 261.1673 15.34406079 69494

JSON: /api/v1/satellites/64739 · /tle

For live sub-satellite position, see the globe view (requires WebGL).

§ Visibility from observer

Set your observer location to see the next 7 days of passes ≥ 10°. The values pass through the URL so the page stays shareable.

No JS? Fill the form by hand. The geolocation button needs JavaScript.